Location: Newark
(31.0436°N, 112.2008°E)
Time: 06:43:32
(UTC+00:00)

N. Korean satellite - Pass Details

Date: 05 February 2020
Orbit: 456 x 505 km, 97.2° (Epoch: 27 February)

Event Time Altitude Azimuth Distance (km) Brightness Sun altitude
Rises 21:29:32 0° 29° (NNE) 2,588 10.6 -24.1°
Reaches altitude 10° 21:31:59 10° 45° (NE) 1,707 9.8 -23.6°
Maximum altitude 21:34:50 21° 96° (E) 1,163 9.3 -23.0°
Drops below altitude 10° 21:37:42 10° 147° (SSE) 1,708 9.8 -22.4°
Sets 21:40:09 0° 164° (SSE) 2,589 10.5 -21.8°
